Weather History for Medford, OR

Change the Weather History Date:

Tuesday, April 22, 2014

  Actual Average Record
Temperature  
Mean Temperature 51 °F 54 °F  
Max Temperature 58 °F 66 °F 89 °F (2012)
Min Temperature 43 °F 42 °F 28 °F (1920)
Degree Days  
Heating Degree Days 14 11  
Month to date heating degree days 180 285  
Since 1 July heating degree days 3971 3917  
Cooling Degree Days 0 0  
Month to date cooling degree days 0 0  
Year to date cooling degree days 0 0  
Moisture  
Dew Point 36 °F    
Average Humidity 60    
Maximum Humidity 83    
Minimum Humidity 36    
Precipitation  
Precipitation 0.17 in 0.05 in 0.41 in (1997)
Month to date precipitation 0.58 1.03  
Year to date precipitation 9.41 7.18  
Snow  
Snow 0.00 in 0.00 in - ()
Month to date snowfall 0.0 0.1  
Since 1 July snowfall 3.4 4.2  
Snow Depth 0.00 in    
Sea Level Pressure  
Sea Level Pressure 30.02 in    
Wind  
Wind Speed 6 mph (NW)    
Max Wind Speed 22 mph    
Max Gust Speed 27 mph    
Visibility 10 miles    
Events Rain    
T = Trace of Precipitation, MM = Missing Value Source: NWS Daily Summary

Daily Weather History Graph

Daily Weather History Graph

Search for Another Location

Airport:

Trip Planner

Search our weather history database for the weather conditions in past years. The results will help you decide how hot, cold, wet, or windy it might be!

Date:

Astronomy

Apr. 22, 2014 Rise Set
Actual Time 6:19 AM PDT 8:01 PM PDT
Civil Twilight 5:49 AM PDT 8:31 PM PDT
Nautical Twilight 5:13 AM PDT 9:07 PM PDT
Astronomical Twilight 4:34 AM PDT 9:46 PM PDT
Moon 2:20 AM PDT (4/22) 1:00 PM PDT (4/22)
Length of Visible Light 14h 41m
Length of Day
13h 41m
Last Quarter, 45% of the Moon is Illuminated
Apr 22
Last Quarter
Apr 28
New
May 6
First Quarter
May 14
Full
May 21
Last Quarter

Hourly Weather History & Observations

Time (PDT) Temp. Windchill Dew Point Humidity Pressure Visibility Wind Dir Wind Speed Gust Speed Precip Events Conditions
12:53 AM 46.9 °F - 41.0 °F 80% 29.92 in 10.0 mi West 5.8 mph - 0.00 in   Overcast
1:53 AM 46.0 °F 43.1 °F 41.0 °F 83% 29.93 in 9.0 mi WNW 5.8 mph - 0.03 in Rain Light Rain
2:53 AM 45.0 °F 41.2 °F 41.0 °F 86% 29.94 in 10.0 mi NW 6.9 mph - 0.02 in   Overcast
3:53 AM 45.0 °F 42.6 °F 39.0 °F 80% 29.95 in 10.0 mi NW 4.6 mph - N/A   Overcast
4:53 AM 44.1 °F 42.5 °F 39.9 °F 85% 29.97 in 10.0 mi NW 3.5 mph - 0.00 in   Overcast
5:30 AM 44.1 °F 40.1 °F 39.9 °F 85% 29.98 in 10.0 mi NW 6.9 mph - 0.00 in   Overcast
5:53 AM 44.1 °F 41.5 °F 41.0 °F 89% 29.99 in 8.0 mi NW 4.6 mph - 0.01 in Rain Light Rain
6:20 AM 43.0 °F 36.8 °F 37.0 °F 80% 30.00 in 4.0 mi NW 11.5 mph - 0.04 in Rain Rain
6:53 AM 43.0 °F 38.8 °F 37.9 °F 82% 30.01 in 5.0 mi WNW 6.9 mph - 0.10 in Rain Rain
7:53 AM 44.1 °F 40.1 °F 39.0 °F 82% 30.03 in 10.0 mi WNW 6.9 mph - 0.00 in   Overcast
8:53 AM 44.1 °F 39.5 °F 37.9 °F 79% 30.05 in 10.0 mi West 8.1 mph - 0.00 in Rain Light Rain
9:53 AM 46.9 °F - 35.1 °F 63% 30.05 in 10.0 mi WNW 5.8 mph - 0.00 in   Mostly Cloudy
10:53 AM 50.0 °F - 36.0 °F 59% 30.04 in 10.0 mi Variable 3.5 mph - N/A   Scattered Clouds
11:53 AM 52.0 °F - 35.1 °F 53% 30.04 in 10.0 mi NNE 4.6 mph - 0.01 in   Partly Cloudy
12:53 PM 55.0 °F - 33.1 °F 43% 30.03 in 10.0 mi Variable 5.8 mph - N/A   Scattered Clouds
1:53 PM 53.1 °F - 33.1 °F 47% 30.01 in 10.0 mi Calm Calm - N/A   Mostly Cloudy
2:53 PM 55.9 °F - 32.0 °F 40% 30.01 in 10.0 mi WNW 12.7 mph 18.4 mph 0.00 in   Mostly Cloudy
3:53 PM 57.9 °F - 30.9 °F 36% 30.01 in 10.0 mi WNW 15.0 mph 20.7 mph N/A   Scattered Clouds
4:53 PM 55.9 °F - 32.0 °F 40% 30.02 in 10.0 mi WNW 13.8 mph 23.0 mph N/A   Mostly Cloudy
5:53 PM 54.0 °F - 30.9 °F 41% 30.04 in 10.0 mi WNW 15.0 mph - N/A   Mostly Cloudy
6:53 PM 53.1 °F - 30.9 °F 43% 30.05 in 10.0 mi West 10.4 mph - N/A   Mostly Cloudy
7:53 PM 51.1 °F - 30.9 °F 46% 30.06 in 10.0 mi NW 5.8 mph - N/A   Mostly Cloudy
8:53 PM 50.0 °F - 30.9 °F 48% 30.06 in 10.0 mi NNW 4.6 mph - N/A   Mostly Cloudy
9:53 PM 48.9 °F - 33.1 °F 54% 30.07 in 10.0 mi Calm Calm - N/A   Partly Cloudy
10:53 PM 48.0 °F - 34.0 °F 58% 30.08 in 10.0 mi North 4.6 mph - N/A   Overcast
11:53 PM 48.0 °F - 33.1 °F 56% 30.08 in 10.0 mi NNW 3.5 mph - N/A   Overcast